Time,TemperatureF,DewpointF,PressureIn,WindDirection,WindDirectionDegrees,WindSpeedMPH,WindSpeedGustMPH,Humidity,HourlyPrecipIn,Conditions,Clouds,dailyrainin,SoftwareType,DateUTC
2013-12-19 00:12:00,24.0,20.0,30.13,SW,223,3.0,-999.0,84,-99.99,,,-99.99,,2013-12-19 05:12:00,
2013-12-19 00:22:00,24.0,20.0,30.14,SW,217,4.0,-999.0,83,-99.99,,,-99.99,,2013-12-19 05:22:00,
2013-12-19 00:42:00,24.0,20.0,30.13,WSW,239,2.0,-999.0,84,-99.99,,,-99.99,,2013-12-19 05:42:00,
2013-12-19 00:52:00,24.0,20.0,30.14,SW,221,4.0,-999.0,83,-99.99,,,-99.99,,2013-12-19 05:52:00,
2013-12-19 01:12:00,24.0,19.0,30.14,SSW,213,5.0,-999.0,82,-99.99,,,-99.99,,2013-12-19 06:12:00,
2013-12-19 01:22:00,24.0,19.0,30.14,West,259,4.0,-999.0,82,-99.99,,,-99.99,,2013-12-19 06:22:00,
2013-12-19 01:52:00,24.0,19.0,30.14,SW,224,3.0,-999.0,81,-99.99,,,-99.99,,2013-12-19 06:52:00,
2013-12-19 02:12:00,24.0,19.0,30.14,South,190,3.0,-999.0,81,-99.99,,,-99.99,,2013-12-19 07:12:00,
2013-12-19 02:22:00,24.0,19.0,30.14,South,184,3.0,-999.0,81,-99.99,,,-99.99,,2013-12-19 07:22:00,
2013-12-19 02:42:00,24.0,19.0,30.14,SW,214,3.0,-999.0,81,-99.99,,,-99.99,,2013-12-19 07:42:00,
2013-12-19 02:52:00,24.0,19.0,30.14,SSW,198,2.0,-999.0,80,-99.99,,,-99.99,,2013-12-19 07:52:00,
2013-12-19 03:11:00,24.0,19.0,30.14,SW,224,3.0,-999.0,80,-99.99,,,-99.99,,2013-12-19 08:11:00,
2013-12-19 03:22:00,24.0,18.0,30.14,WSW,256,3.0,-999.0,78,-99.99,,,-99.99,,2013-12-19 08:22:00,
2013-12-19 03:42:00,24.0,18.0,30.13,SSW,192,4.0,-999.0,78,-99.99,,,-99.99,,2013-12-19 08:42:00,
2013-12-19 03:52:00,24.0,18.0,30.12,South,188,6.0,-999.0,78,-99.99,,,-99.99,,2013-12-19 08:52:00,
2013-12-19 04:11:00,23.0,17.0,30.12,SW,219,5.0,-999.0,78,-99.99,,,-99.99,,2013-12-19 09:11:00,
2013-12-19 04:22:00,23.0,17.0,30.11,SW,236,3.0,-999.0,78,-99.99,,,-99.99,,2013-12-19 09:22:00,
2013-12-19 04:43:00,23.0,17.0,30.10,South,182,3.0,-999.0,78,-99.99,,,-99.99,,2013-12-19 09:43:00,
2013-12-19 04:54:00,23.0,17.0,30.09,SSW,204,3.0,-999.0,78,-99.99,,,-99.99,,2013-12-19 09:54:00,
2013-12-19 05:12:00,23.0,17.0,30.09,SSW,192,4.0,-999.0,77,-99.99,,,-99.99,,2013-12-19 10:12:00,
2013-12-19 05:23:00,23.0,17.0,30.08,SSW,207,3.0,-999.0,77,-99.99,,,-99.99,,2013-12-19 10:23:00,
2013-12-19 05:43:00,23.0,17.0,30.08,SW,223,2.0,-999.0,76,-99.99,,,-99.99,,2013-12-19 10:43:00,
2013-12-19 05:53:00,24.0,17.0,30.09,SW,223,4.0,-999.0,74,-99.99,,,-99.99,,2013-12-19 10:53:00,
2013-12-19 06:22:00,23.0,16.0,30.07,SSW,206,3.0,-999.0,74,-99.99,,,-99.99,,2013-12-19 11:22:00,
2013-12-19 06:42:00,24.0,17.0,30.07,SW,215,4.0,-999.0,73,-99.99,,,-99.99,,2013-12-19 11:42:00,
2013-12-19 06:53:00,24.0,17.0,30.07,SSE,150,4.0,-999.0,73,-99.99,,,-99.99,,2013-12-19 11:53:00,
2013-12-19 07:12:00,24.0,16.0,30.07,SSW,195,5.0,-999.0,72,-99.99,,,-99.99,,2013-12-19 12:12:00,
2013-12-19 07:22:00,24.0,16.0,30.07,SW,217,4.0,-999.0,71,-99.99,,,-99.99,,2013-12-19 12:22:00,
2013-12-19 07:42:00,24.0,16.0,30.06,SSW,208,5.0,-999.0,72,-99.99,,,-99.99,,2013-12-19 12:42:00,
2013-12-19 07:52:00,24.0,16.0,30.06,SW,217,5.0,-999.0,72,-99.99,,,-99.99,,2013-12-19 12:52:00,
2013-12-19 08:11:00,24.0,16.0,30.07,South,186,5.0,-999.0,71,-99.99,,,-99.99,,2013-12-19 13:11:00,
2013-12-19 08:22:00,25.0,17.0,30.07,WSW,239,6.0,-999.0,71,-99.99,,,-99.99,,2013-12-19 13:22:00,
2013-12-19 08:42:00,25.0,17.0,30.07,South,178,4.0,-999.0,70,-99.99,,,-99.99,,2013-12-19 13:42:00,
2013-12-19 08:52:00,26.0,17.0,30.07,SSE,168,6.0,-999.0,69,-99.99,,,-99.99,,2013-12-19 13:52:00,
2013-12-19 09:12:00,27.0,18.0,30.07,West,273,6.0,-999.0,68,-99.99,,,-99.99,,2013-12-19 14:12:00,
2013-12-19 09:22:00,27.0,18.0,30.07,NW,313,6.0,-999.0,67,-99.99,,,-99.99,,2013-12-19 14:22:00,
2013-12-19 09:42:00,28.0,18.0,30.07,SSW,205,5.0,-999.0,66,-99.99,,,-99.99,,2013-12-19 14:42:00,
2013-12-19 09:52:00,29.0,19.0,30.07,SSW,211,5.0,-999.0,65,-99.99,,,-99.99,,2013-12-19 14:52:00,
2013-12-19 10:12:00,30.0,19.0,30.06,SSW,202,6.0,-999.0,64,-99.99,,,-99.99,,2013-12-19 15:12:00,
2013-12-19 10:22:00,30.0,19.0,30.06,SSW,202,6.0,-999.0,64,-99.99,,,-99.99,,2013-12-19 15:22:00,
2013-12-19 10:43:00,31.0,20.0,30.06,South,176,6.0,-999.0,62,-99.99,,,-99.99,,2013-12-19 15:43:00,
2013-12-19 10:54:00,32.0,20.0,30.06,WSW,237,7.0,-999.0,61,-99.99,,,-99.99,,2013-12-19 15:54:00,
2013-12-19 11:13:00,33.0,21.0,30.06,WNW,289,6.0,-999.0,61,-99.99,,,-99.99,,2013-12-19 16:13:00,
2013-12-19 11:23:00,33.0,21.0,30.06,ESE,104,7.0,-999.0,60,-99.99,,,-99.99,,2013-12-19 16:23:00,
2013-12-19 11:42:00,34.0,21.0,30.05,SW,232,7.0,-999.0,59,-99.99,,,-99.99,,2013-12-19 16:42:00,
2013-12-19 11:53:00,35.0,22.0,30.04,West,263,8.0,-999.0,59,-99.99,,,-99.99,,2013-12-19 16:53:00,
2013-12-19 12:12:00,35.0,22.0,30.04,WSW,250,6.0,-999.0,58,-99.99,,,-99.99,,2013-12-19 17:12:00,
2013-12-19 12:22:00,35.0,22.0,30.03,SW,225,7.0,-999.0,59,-99.99,,,-99.99,,2013-12-19 17:22:00,
2013-12-19 12:42:00,36.0,23.0,30.03,WSW,241,8.0,-999.0,58,-99.99,,,-99.99,,2013-12-19 17:42:00,
2013-12-19 12:53:00,37.0,24.0,30.03,SW,225,4.0,-999.0,58,-99.99,,,-99.99,,2013-12-19 17:53:00,
2013-12-19 13:12:00,37.0,24.0,30.03,SSW,194,5.0,-999.0,58,-99.99,,,-99.99,,2013-12-19 18:12:00,
2013-12-19 13:22:00,36.0,23.0,30.03,SSW,211,5.0,-999.0,59,-99.99,,,-99.99,,2013-12-19 18:22:00,
2013-12-19 13:42:00,37.0,24.0,30.03,WSW,240,4.0,-999.0,60,-99.99,,,-99.99,,2013-12-19 18:42:00,
2013-12-19 13:52:00,38.0,25.0,30.03,SW,232,3.0,-999.0,59,-99.99,,,-99.99,,2013-12-19 18:52:00,
2013-12-19 14:11:00,38.0,25.0,30.04,West,262,6.0,-999.0,60,-99.99,,,-99.99,,2013-12-19 19:11:00,
2013-12-19 14:22:00,38.0,25.0,30.03,SSW,212,5.0,-999.0,58,-99.99,,,-99.99,,2013-12-19 19:22:00,
2013-12-19 14:42:00,38.0,25.0,30.04,WSW,239,6.0,-999.0,59,-99.99,,,-99.99,,2013-12-19 19:42:00,
2013-12-19 14:52:00,38.0,25.0,30.04,SW,229,5.0,-999.0,60,-99.99,,,-99.99,,2013-12-19 19:52:00,
2013-12-19 15:22:00,38.0,26.0,30.05,SSW,198,4.0,-999.0,61,-99.99,,,-99.99,,2013-12-19 20:22:00,
2013-12-19 15:42:00,37.0,25.0,30.06,WSW,243,3.0,-999.0,61,-99.99,,,-99.99,,2013-12-19 20:42:00,
2013-12-19 15:52:00,36.0,25.0,30.06,SW,219,3.0,-999.0,63,-99.99,,,-99.99,,2013-12-19 20:52:00,
2013-12-19 16:22:00,36.0,25.0,30.07,SW,219,1.0,-999.0,64,-99.99,,,-99.99,,2013-12-19 21:22:00,
2013-12-19 16:43:00,35.0,24.0,30.07,SW,219,1.0,-999.0,65,-99.99,,,-99.99,,2013-12-19 21:43:00,
2013-12-19 16:53:00,35.0,25.0,30.09,WSW,240,2.0,-999.0,66,-99.99,,,-99.99,,2013-12-19 21:53:00,
2013-12-19 17:13:00,35.0,25.0,30.09,WSW,243,1.0,-999.0,66,-99.99,,,-99.99,,2013-12-19 22:13:00,
2013-12-19 17:23:00,35.0,25.0,30.09,WSW,243,1.0,-999.0,67,-99.99,,,-99.99,,2013-12-19 22:23:00,
2013-12-19 17:43:00,35.0,25.0,30.10,SW,223,1.0,-999.0,67,-99.99,,,-99.99,,2013-12-19 22:43:00,
2013-12-19 17:53:00,35.0,25.0,30.10,SSW,205,1.0,-999.0,67,-99.99,,,-99.99,,2013-12-19 22:53:00,
2013-12-19 18:13:00,34.0,25.0,30.11,SSW,207,3.0,-999.0,69,-99.99,,,-99.99,,2013-12-19 23:13:00,
2013-12-19 18:22:00,34.0,25.0,30.11,SSW,198,2.0,-999.0,69,-99.99,,,-99.99,,2013-12-19 23:22:00,
2013-12-19 18:42:00,34.0,25.0,30.10,SSW,198,1.0,-999.0,69,-99.99,,,-99.99,,2013-12-19 23:42:00,
2013-12-19 18:53:00,33.0,24.0,30.11,SSW,198,1.0,-999.0,70,-99.99,,,-99.99,,2013-12-19 23:53:00,
2013-12-19 19:12:00,33.0,24.0,30.12,SSW,198,1.0,-999.0,70,-99.99,,,-99.99,,2013-12-20 00:12:00,
2013-12-19 19:22:00,33.0,24.0,30.13,SSW,198,1.0,-999.0,70,-99.99,,,-99.99,,2013-12-20 00:22:00,
2013-12-19 19:42:00,33.0,25.0,30.13,SSW,198,1.0,-999.0,71,-99.99,,,-99.99,,2013-12-20 00:42:00,
2013-12-19 19:53:00,33.0,25.0,30.14,SSW,198,1.0,-999.0,71,-99.99,,,-99.99,,2013-12-20 00:53:00,
2013-12-19 20:12:00,33.0,25.0,30.14,SSW,198,2.0,-999.0,71,-99.99,,,-99.99,,2013-12-20 01:12:00,
2013-12-19 20:22:00,33.0,25.0,30.14,SSW,198,1.0,-999.0,71,-99.99,,,-99.99,,2013-12-20 01:22:00,
2013-12-19 20:52:00,33.0,25.0,30.14,SSW,198,1.0,-999.0,71,-99.99,,,-99.99,,2013-12-20 01:52:00,
2013-12-19 21:11:00,33.0,25.0,30.13,SSW,198,0.0,-999.0,72,-99.99,,,-99.99,,2013-12-20 02:11:00,
2013-12-19 21:22:00,32.0,24.0,30.14,SSW,198,0.0,-999.0,73,-99.99,,,-99.99,,2013-12-20 02:22:00,
2013-12-19 21:42:00,32.0,25.0,30.14,SSW,198,0.0,-999.0,74,-99.99,,,-99.99,,2013-12-20 02:42:00,
2013-12-19 21:52:00,32.0,25.0,30.14,SSW,198,0.0,-999.0,75,-99.99,,,-99.99,,2013-12-20 02:52:00,
2013-12-19 22:11:00,32.0,25.0,30.14,SSW,198,0.0,-999.0,75,-99.99,,,-99.99,,2013-12-20 03:11:00,
2013-12-19 22:22:00,31.0,25.0,30.14,SSW,198,0.0,-999.0,77,-99.99,,,-99.99,,2013-12-20 03:22:00,
2013-12-19 22:44:00,31.0,25.0,30.14,SSW,198,0.0,-999.0,78,-99.99,,,-99.99,,2013-12-20 03:44:00,
2013-12-19 22:53:00,31.0,25.0,30.14,SSW,198,0.0,-999.0,79,-99.99,,,-99.99,,2013-12-20 03:53:00,
2013-12-19 23:13:00,31.0,25.0,30.13,SSW,198,0.0,-999.0,77,-99.99,,,-99.99,,2013-12-20 04:13:00,
2013-12-19 23:23:00,32.0,25.0,30.14,SSW,198,0.0,-999.0,76,-99.99,,,-99.99,,2013-12-20 04:23:00,
2013-12-19 23:43:00,34.0,26.0,30.13,SSW,198,1.0,-999.0,73,-99.99,,,-99.99,,2013-12-20 04:43:00,
2013-12-19 23:53:00,33.0,25.0,30.13,SSW,198,1.0,-999.0,72,-99.99,,,-99.99,,2013-12-20 04:53:00,